Tracking 29932 objects as of 3-Dec-2024
HD Live streaming from Space Station
objects crossing your sky now

STARLINK-31647

Track STARLINK-31647 now!
10-day predictions
STARLINK-31647 is classified as:


NORAD ID: 59389
Int'l Code: 2024-062R
Perigee: 481.6 km
Apogee: 483.2 km
Inclination: 53.2 °
Period: 94.1 minutes
Semi major axis: 6853 km
RCS: Unknown
Launch date: April 2, 2024
Source: United States (US)
Launch site: AIR FORCE WESTERN TEST RANGE (AFWTR)
Your satellite tracking list
Your tracking list is empty




NASA's NSSDC Master Catalog

Two Line Element Set (TLE):
1 59389U 24062R   24337.92484823  .00000262  00000-0  20969-4 0  9997
2 59389  53.1603 243.3233 0001146  22.3685 337.7365 15.30195955 38954
Source of the keplerian elements: AFSPC